Location: ???????
(55.3754°N, 39.3545°E)
Time: 22:49:45
(UTC+00:00)

Cosmos 1470 Rocket - Pass Details

Date: 14 April 2026
Orbit: 596 x 627 km, 82.5° (Epoch: 13 May)

Event Time Altitude Azimuth Distance (km) Brightness Sun altitude
Rises 17:23:12 0° 203° (SSW) 2,880 6.9 -8.3°
Reaches altitude 10° 17:25:27 10° 208° (SSW) 1,974 6.1 -8.5°
Maximum altitude 17:29:45 55° 286° (WNW) 740 4.4 -9.1°
Drops below altitude 10° 17:34:02 10° 5° (N) 1,970 6.5 -9.6°
Sets 17:36:18 0° 10° (N) 2,874 7.3 -9.8°
